Volver al catálogo

STARLINK-38128

ActivoComunicacionesVLEO
NORAD 100001·PAYLOAD·🇺🇸 United States

Lanzado Jul 14, 2026 desde Vandenberg Space Force Base

Loading…

Próximos Pases (próximas 24 horas)

TLE

ActualizadoSource: Space-Track

Época: Sep 14, 2026, 14:23 UTC

1 A0001U 26160A   26257.59997283 -.00153500  00000-0 -95134-3 0  9991
2 A0001  70.0025 211.5852 0005315 294.6688  65.3958 15.77162661 11064

Sigue STARLINK-38128 en tiempo real con AllMySat

Download on the App Store